Regional Weather Roundup
Issued by NWS

Home | Current Version | Previous Version | Text Only | Print | Product List | Glossary On
Versions: 1 2 3 4 5 6 7 8 9 10 11 12 13 14 15 16 17 18 19 20 21 22 23 24 25 26 27 28 29 30 31 32 33 34 35 36 37 38 39 40 41 42 43 44 45 46 47 48 49
000
ASUS45 KREV 290610
RWRNV
NEVADA REGIONAL WEATHER ROUNDUP
NATIONAL WEATHER SERVICE RENO NV
1100 PM PDT SAT MAR 28 2015

NOTE: "FAIR" INDICATES FEW OR NO CLOUDS BELOW 12,000 FEET WITH NO
SIGNIFICANT WEATHER AND/OR OBSTRUCTIONS TO VISIBILITY.

NVZ001-003-004-290700-
WESTERN NEVADA

CITY           SKY/WX    TMP DP  RH WIND       PRES   REMARKS
RENO           PTCLDY    54  15  21 W5        30.26S
6HR MIN TEMP:  54; 6HR MAX TEMP:  72;

CARSON CITY    FAIR      48  10  21 CALM      30.27R
MINDEN         FAIR      39  18  41 N3        30.27
SLIDE MTN        N/A     37  12  35 E22         N/A
PYRAMID LAKE     N/A     57 N/A N/A SW8         N/A
FALLON         PTCLDY    48   4  16 VRB5      30.22S
6HR MIN TEMP:  46; 6HR MAX TEMP:  73;

LOVELOCK       PTCLDY    44   5  20 CALM      30.24R
6HR MIN TEMP:  42; 6HR MAX TEMP:  72;

HAWTHORNE      CLEAR     57  23  26 NW7       30.24R
$$

NVZ002-CAZ072-073-290700-
NORTHERN AND CENTRAL SIERRA

CITY           SKY/WX    TMP DP  RH WIND       PRES   REMARKS
S. LAKE TAHOE  PTCLDY    43  26  51 CALM      30.30R
6HR MIN TEMP:  43; 6HR MAX TEMP:  65;

TRUCKEE        PTCLDY    37  25  60 CALM      30.31R
SQUAW VLY 8000   N/A     41  16  36 N3          N/A
SUSANVILLE     CLEAR     43  23  45 CALM      30.25R
BLUE CANYON    CLEAR     57  13  17 E7        30.25S
MAMMOTH LAKES  FAIR      48  14  25 NW9       30.34R
BRIDGEPORT     FAIR      40  16  37 CALM      30.32R
$$

NVZ030-031-036-290700-
NORTHERN NEVADA

CITY           SKY/WX    TMP DP  RH WIND       PRES   REMARKS
ELKO           CLEAR     41  11  29 CALM      30.31R
6HR MIN TEMP:  41; 6HR MAX TEMP:  65;

WINNEMUCCA     CLEAR     49  12  22 NE16      30.27S
6HR MIN TEMP:  43; 6HR MAX TEMP:  68;

WENDOVER       CLEAR     48  16  27 NE6       30.27R
$$

NVZ035-037-290700-
CENTRAL NEVADA

CITY           SKY/WX    TMP DP  RH WIND       PRES   REMARKS
ELY            CLEAR     48  13  24 N10       30.30R
6HR MIN TEMP:  46; 6HR MAX TEMP:  71;

EUREKA           N/A     45  16  31 CALM      30.31R
6HR MIN TEMP:  41; 6HR MAX TEMP:  69;

$$

NVZ013-014-290700-
SOUTH CENTRAL NEVADA

CITY           SKY/WX    TMP DP  RH WIND       PRES   REMARKS
TONOPAH        MOCLDY    58   8  13 NW8       30.23R
6HR MIN TEMP:  58; 6HR MAX TEMP:  73;

$$

NVZ017-020-022-290700-
SOUTHERN NEVADA

CITY           SKY/WX    TMP DP  RH WIND       PRES   REMARKS
LAS VEGAS      CLEAR     73  18  12 S10       29.98R
6HR MIN TEMP:  73; 6HR MAX TEMP:  90;

N. LAS VEGAS   CLEAR     71  16  12 N6        30.01R
6HR MIN TEMP:  71; 6HR MAX TEMP:  90;

NELLIS AFB     CLEAR     71  24  17 S6        30.00R
6HR MIN TEMP:  70; 6HR MAX TEMP:  90;

HENDERSON      CLEAR     69  21  16 SW13      30.05R
6HR MIN TEMP:  69; 6HR MAX TEMP:  89;

MERCURY        CLEAR     58  15  18 NE3       30.08R
6HR MIN TEMP:  57; 6HR MAX TEMP:  84;

$$


USA.gov is the U.S. government's official web portal to all federal, state and local government web resources and services.